Regional Weather Roundup
Issued by NWS

Home | Current Version | Previous Version | Text Only | Print | Product List | Glossary On
Versions: 1 2 3 4 5 6 7 8 9 10 11 12 13 14 15 16 17 18 19 20 21 22 23 24 25 26 27 28 29 30 31 32 33 34 35 36 37 38 39 40 41 42 43 44 45 46 47 48 49 50
000
ASUS44 KLIX 280911
RWRLA
LOUISIANA WEATHER ROUNDUP
NATIONAL WEATHER SERVICE NEW ORLEANS LA
400 AM CDT SAT MAR 28 2015

NOTE: "FAIR" INDICATES FEW OR NO CLOUDS BELOW 12,000 FEET WITH NO
      SIGNIFICANT WEATHER AND/OR OBSTRUCTIONS TO VISIBILITY.
      SKY/WX - SKY CONDITION AND SIGNIFICANT WEATHER.
      TMP - AIR TEMPERATURE.    DP   - DEWPOINT TEMPERATURE.
      RH  - RELATIVE HUMIDITY.  PRES - PRESSURE.
      HX  - HEAT INDEX.         WCI  - WIND CHILL INDEX.

*  THESE STATIONS ARE NOT NWS OR FAA STATIONS AND ARE NOT UNDER
   NWS QUALITY CONTROL.

LAZ040-048-061>063-065-066-069-281000-
SOUTHEAST LOUISIANA

CITY           SKY/WX    TMP DP  RH WIND       PRES   REMARKS
N.O. AUDUBON     N/A     54 N/A N/A MISG        N/A
N.O. INTL ARPT CLEAR     54  37  52 NE9       30.17R
N.O. LAKEFRONT CLEAR     57  39  51 NE15      30.18R
SLIDELL        CLEAR     43  40  89 CALM      30.18R
BATON ROUGE    CLEAR     46  41  82 CALM      30.17R
BOOTHVILLE     CLOUDY    57  46  66 NE6       30.15S
BELLE CHASSE   CLEAR     49  39  68 NE6       30.16S
BOGALUSA*        N/A     42  39  88 CALM      30.19S
GALLIANO*      SUNNY     56  42  60 MISG      30.16S
NEW ROADS*     FAIR      48  39  72 E5        30.17F
GONZALES*      FAIR      48  41  76 CALM      30.17R
HAMMOND*       CLEAR     46  36  66 CALM      30.19S
HOUMA*         CLEAR     49  44  84 CALM      30.16S
PORT FOURCHON* SUNNY     59  45  58 NE10G20   30.18R

$$

LAZ041-044-053-054-281000-
SOUTHWEST LOUISIANA

CITY           SKY/WX    TMP DP  RH WIND       PRES   REMARKS
LAKE CHARLES   CLEAR     49  42  77 CALM      30.15S
LAFAYETTE      CLEAR     52  44  74 CALM      30.15F
PATTERSON      CLEAR     50  43  76 E3        30.17S
SALT POINT       N/A     51  44  77 CALM      30.15S
NEW IBERIA     CLEAR     50  42  74 CALM      30.16F
CHENAULT AIRPK CLEAR     51  44  78 CALM      30.16S

$$

LAZ027-028-281000-
CENTRAL LOUISIANA

CITY           SKY/WX    TMP DP  RH WIND       PRES   REMARKS
FORT POLK      CLEAR     47  41  77 E2        30.14S
ALEXANDRIA INT CLEAR     47  41  80 NE3       30.15F
ALEXANDRIA     CLEAR     41  40  96 CALM      30.17S

$$

LAZ001-002-281000-
NORTHWEST LOUISIANA

CITY           SKY/WX    TMP DP  RH WIND       PRES   REMARKS
SHREVEPORT     PTCLDY    45  38  76 E3        30.14F
BARKSDALE AFB  CLEAR     43  38  80 SE5       30.15F
DTN SHREVEPORT CLEAR     46  38  73 SE6       30.15F

$$

LAZ014-016-281000-
NORTHEAST LOUISIANA

CITY           SKY/WX    TMP DP  RH WIND       PRES   REMARKS
MONROE         CLEAR     40  39  97 CALM      30.19F
TALLULAH       CLEAR     38  34  85 S3        30.19F

$$



USA.gov is the U.S. government's official web portal to all federal, state and local government web resources and services.